Time,TemperatureF,DewpointF,PressureIn,WindDirection,WindDirectionDegrees,WindSpeedMPH,WindSpeedGustMPH,Humidity,HourlyPrecipIn,Conditions,Clouds,dailyrainin,SoftwareType,DateUTC
2014-01-19 13:59:00,61.9,-99.9,29.26,South,188,20.2,-999.0,-999,-99.99,,,-99.99,WeatherSnoop3.0,2014-01-19 18:59:00,
2014-01-19 14:00:00,33.6,-99.9,29.60,South,174,9.4,-999.0,-999,-99.99,,,-99.99,WeatherSnoop3.0,2014-01-19 19:00:00,
2014-01-19 14:01:00,33.8,-99.9,29.60,WSW,244,10.0,-999.0,-999,-99.99,,,-99.99,WeatherSnoop3.0,2014-01-19 19:01:00,
2014-01-19 14:03:00,33.6,-99.9,29.60,WSW,251,9.4,-999.0,-999,-99.99,,,-99.99,WeatherSnoop3.0,2014-01-19 19:03:00,
2014-01-19 14:05:00,33.6,-99.9,29.60,SSW,209,8.9,-999.0,-999,-99.99,,,-99.99,WeatherSnoop3.0,2014-01-19 19:05:00,
2014-01-19 14:10:00,33.7,-99.9,29.60,West,265,14.0,-999.0,-999,-99.99,,,-99.99,WeatherSnoop3.0,2014-01-19 19:10:00,
2014-01-19 14:15:00,33.7,-99.9,29.60,SW,229,9.6,-999.0,-999,-99.99,,,-99.99,WeatherSnoop3.0,2014-01-19 19:15:00,
2014-01-19 14:20:00,33.8,-99.9,29.60,West,277,11.6,-999.0,-999,-99.99,,,-99.99,WeatherSnoop3.0,2014-01-19 19:20:00,
2014-01-19 14:25:00,33.6,-99.9,29.60,West,264,7.2,-999.0,-999,-99.99,,,-99.99,WeatherSnoop3.0,2014-01-19 19:25:00,
2014-01-19 14:28:00,33.7,-99.9,29.60,SW,220,9.9,-999.0,-999,-99.99,,,-99.99,WeatherSnoop3.0,2014-01-19 19:28:00,
2014-01-19 14:33:00,33.5,-99.9,29.60,WSW,239,6.3,-999.0,-999,-99.99,,,-99.99,WeatherSnoop3.0,2014-01-19 19:33:00,
2014-01-19 14:38:00,33.6,-99.9,29.60,SSW,206,12.1,-999.0,-999,-99.99,,,-99.99,WeatherSnoop3.0,2014-01-19 19:38:00,
2014-01-19 14:43:00,33.6,-99.9,29.60,WSW,239,13.6,-999.0,-999,-99.99,,,-99.99,WeatherSnoop3.0,2014-01-19 19:43:00,
2014-01-19 14:48:00,33.0,-99.9,29.60,SW,232,7.2,-999.0,-999,-99.99,,,-99.99,WeatherSnoop3.0,2014-01-19 19:48:00,
2014-01-19 14:53:00,32.7,-99.9,29.60,WSW,243,18.0,-999.0,-999,-99.99,,,-99.99,WeatherSnoop3.0,2014-01-19 19:53:00,
2014-01-19 14:58:00,32.6,-99.9,29.60,SW,232,15.6,-999.0,-999,-99.99,,,-99.99,WeatherSnoop3.0,2014-01-19 19:58:00,
2014-01-19 15:03:00,32.7,-99.9,29.60,SSW,205,9.1,-999.0,-999,-99.99,,,-99.99,WeatherSnoop3.0,2014-01-19 20:03:00,
2014-01-19 15:08:00,32.9,-99.9,29.61,SW,219,8.0,-999.0,-999,-99.99,,,-99.99,WeatherSnoop3.0,2014-01-19 20:08:00,
2014-01-19 15:13:00,32.9,-99.9,29.61,WSW,250,18.0,-999.0,-999,-99.99,,,-99.99,WeatherSnoop3.0,2014-01-19 20:13:00,
2014-01-19 15:18:00,32.8,-99.9,29.61,SW,223,8.1,-999.0,-999,-99.99,,,-99.99,WeatherSnoop3.0,2014-01-19 20:18:00,
2014-01-19 15:23:00,32.7,-99.9,29.61,SW,232,16.2,-999.0,-999,-99.99,,,-99.99,WeatherSnoop3.0,2014-01-19 20:23:00,
2014-01-19 15:28:00,32.7,-99.9,29.61,SW,220,15.5,-999.0,-999,-99.99,,,-99.99,WeatherSnoop3.0,2014-01-19 20:28:00,
2014-01-19 15:33:00,32.7,-99.9,29.62,SSW,203,6.1,-999.0,-999,-99.99,,,-99.99,WeatherSnoop3.0,2014-01-19 20:33:00,
2014-01-19 15:38:00,32.6,-99.9,29.62,SW,219,6.0,-999.0,-999,-99.99,,,-99.99,WeatherSnoop3.0,2014-01-19 20:38:00,
2014-01-19 15:43:00,32.4,-99.9,29.62,SW,217,6.8,-999.0,-999,-99.99,,,-99.99,WeatherSnoop3.0,2014-01-19 20:43:00,
2014-01-19 15:48:00,32.2,-99.9,29.61,SW,220,7.0,-999.0,-999,-99.99,,,-99.99,WeatherSnoop3.0,2014-01-19 20:48:00,
2014-01-19 15:53:00,32.3,-99.9,29.61,SW,230,9.0,-999.0,-999,-99.99,,,-99.99,WeatherSnoop3.0,2014-01-19 20:53:00,
2014-01-19 15:58:00,32.1,-99.9,29.61,WNW,299,8.9,-999.0,-999,-99.99,,,-99.99,WeatherSnoop3.0,2014-01-19 20:58:00,
2014-01-19 16:03:00,32.0,-99.9,29.61,SSW,202,6.6,-999.0,-999,-99.99,,,-99.99,WeatherSnoop3.0,2014-01-19 21:03:00,
2014-01-19 16:08:00,31.9,-99.9,29.61,West,263,20.8,-999.0,-999,-99.99,,,-99.99,WeatherSnoop3.0,2014-01-19 21:08:00,
2014-01-19 16:13:00,32.0,-99.9,29.61,WSW,240,9.6,-999.0,-999,-99.99,,,-99.99,WeatherSnoop3.0,2014-01-19 21:13:00,
2014-01-19 16:18:00,31.9,-99.9,29.61,SW,236,15.3,-999.0,-999,-99.99,,,-99.99,WeatherSnoop3.0,2014-01-19 21:18:00,
2014-01-19 16:23:00,31.8,-99.9,29.61,WSW,237,11.9,-999.0,-999,-99.99,,,-99.99,WeatherSnoop3.0,2014-01-19 21:23:00,
2014-01-19 16:28:00,31.9,-99.9,29.60,SW,220,10.7,-999.0,-999,-99.99,,,-99.99,WeatherSnoop3.0,2014-01-19 21:28:00,
2014-01-19 16:33:00,31.7,-99.9,29.60,WSW,239,20.6,-999.0,-999,-99.99,,,-99.99,WeatherSnoop3.0,2014-01-19 21:33:00,
2014-01-19 16:38:00,31.8,-99.9,29.60,SSW,198,5.3,-999.0,-999,-99.99,,,-99.99,WeatherSnoop3.0,2014-01-19 21:38:00,
2014-01-19 16:43:00,31.8,-99.9,29.60,WSW,256,9.0,-999.0,-999,-99.99,,,-99.99,WeatherSnoop3.0,2014-01-19 21:43:00,
2014-01-19 16:48:00,31.7,-99.9,29.60,SW,229,13.7,-999.0,-999,-99.99,,,-99.99,WeatherSnoop3.0,2014-01-19 21:48:00,
2014-01-19 16:53:00,31.8,-99.9,29.60,SSW,209,14.8,-999.0,-999,-99.99,,,-99.99,WeatherSnoop3.0,2014-01-19 21:53:00,
2014-01-19 16:58:00,31.8,-99.9,29.60,SW,215,8.0,-999.0,-999,-99.99,,,-99.99,WeatherSnoop3.0,2014-01-19 21:58:00,
2014-01-19 17:03:00,31.8,-99.9,29.59,SW,224,19.0,-999.0,-999,-99.99,,,-99.99,WeatherSnoop3.0,2014-01-19 22:03:00,
2014-01-19 17:08:00,31.6,-99.9,29.60,WSW,237,8.8,-999.0,-999,-99.99,,,-99.99,WeatherSnoop3.0,2014-01-19 22:08:00,
2014-01-19 17:13:00,31.7,-99.9,29.60,SW,220,10.9,-999.0,-999,-99.99,,,-99.99,WeatherSnoop3.0,2014-01-19 22:13:00,
2014-01-19 17:18:00,31.7,-99.9,29.60,WNW,285,9.9,-999.0,-999,-99.99,,,-99.99,WeatherSnoop3.0,2014-01-19 22:18:00,
2014-01-19 17:23:00,31.7,-99.9,29.60,SW,230,10.3,-999.0,-999,-99.99,,,-99.99,WeatherSnoop3.0,2014-01-19 22:23:00,
2014-01-19 17:28:00,31.7,-99.9,29.60,SW,234,17.3,-999.0,-999,-99.99,,,-99.99,WeatherSnoop3.0,2014-01-19 22:28:00,
2014-01-19 17:33:00,31.7,-99.9,29.60,WSW,241,10.6,-999.0,-999,-99.99,,,-99.99,WeatherSnoop3.0,2014-01-19 22:33:00,
2014-01-19 17:38:00,31.6,-99.9,29.60,WSW,243,8.1,-999.0,-999,-99.99,,,-99.99,WeatherSnoop3.0,2014-01-19 22:38:00,
2014-01-19 17:43:00,31.8,-99.9,29.60,SSW,196,10.7,-999.0,-999,-99.99,,,-99.99,WeatherSnoop3.0,2014-01-19 22:43:00,
2014-01-19 17:48:00,31.8,-99.9,29.60,SW,215,5.8,-999.0,-999,-99.99,,,-99.99,WeatherSnoop3.0,2014-01-19 22:48:00,
2014-01-19 17:53:00,31.8,-99.9,29.60,WSW,250,5.1,-999.0,-999,-99.99,,,-99.99,WeatherSnoop3.0,2014-01-19 22:53:00,
2014-01-19 17:58:00,31.8,-99.9,29.60,SW,234,15.8,-999.0,-999,-99.99,,,-99.99,WeatherSnoop3.0,2014-01-19 22:58:00,
2014-01-19 18:03:00,31.9,-99.9,29.60,SW,222,4.2,-999.0,-999,-99.99,,,-99.99,WeatherSnoop3.0,2014-01-19 23:03:00,
2014-01-19 18:08:00,31.8,-99.9,29.60,WSW,240,6.0,-999.0,-999,-99.99,,,-99.99,WeatherSnoop3.0,2014-01-19 23:08:00,
2014-01-19 18:13:00,32.0,-99.9,29.61,WSW,258,8.3,-999.0,-999,-99.99,,,-99.99,WeatherSnoop3.0,2014-01-19 23:13:00,
2014-01-19 18:18:00,32.0,-99.9,29.61,WSW,247,5.0,-999.0,-999,-99.99,,,-99.99,WeatherSnoop3.0,2014-01-19 23:18:00,
2014-01-19 18:23:00,31.8,-99.9,29.61,WSW,254,11.8,-999.0,-999,-99.99,,,-99.99,WeatherSnoop3.0,2014-01-19 23:23:00,
2014-01-19 18:28:00,31.7,-99.9,29.60,SW,232,7.1,-999.0,-999,-99.99,,,-99.99,WeatherSnoop3.0,2014-01-19 23:28:00,
2014-01-19 18:33:00,31.8,-99.9,29.61,WSW,241,11.3,-999.0,-999,-99.99,,,-99.99,WeatherSnoop3.0,2014-01-19 23:33:00,
2014-01-19 18:38:00,31.8,-99.9,29.61,West,267,9.4,-999.0,-999,-99.99,,,-99.99,WeatherSnoop3.0,2014-01-19 23:38:00,
2014-01-19 18:43:00,31.9,-99.9,29.61,WSW,250,13.6,-999.0,-999,-99.99,,,-99.99,WeatherSnoop3.0,2014-01-19 23:43:00,
2014-01-19 18:48:00,31.8,-99.9,29.61,West,264,11.2,-999.0,-999,-99.99,,,-99.99,WeatherSnoop3.0,2014-01-19 23:48:00,
2014-01-19 18:53:00,31.9,-99.9,29.61,West,268,10.1,-999.0,-999,-99.99,,,-99.99,WeatherSnoop3.0,2014-01-19 23:53:00,
2014-01-19 18:58:00,32.0,-99.9,29.61,West,261,9.5,-999.0,-999,-99.99,,,-99.99,WeatherSnoop3.0,2014-01-19 23:58:00,
2014-01-19 19:03:00,32.2,-99.9,29.61,NW,311,3.7,-999.0,-999,-99.99,,,-99.99,WeatherSnoop3.0,2014-01-20 00:03:00,
2014-01-19 19:08:00,32.1,-99.9,29.61,SW,220,7.1,-999.0,-999,-99.99,,,-99.99,WeatherSnoop3.0,2014-01-20 00:08:00,
2014-01-19 19:13:00,32.2,-99.9,29.61,SW,226,7.5,-999.0,-999,-99.99,,,-99.99,WeatherSnoop3.0,2014-01-20 00:13:00,
2014-01-19 19:18:00,32.3,-99.9,29.61,SW,233,10.7,-999.0,-999,-99.99,,,-99.99,WeatherSnoop3.0,2014-01-20 00:18:00,
2014-01-19 19:23:00,32.2,-99.9,29.62,SW,229,4.7,-999.0,-999,-99.99,,,-99.99,WeatherSnoop3.0,2014-01-20 00:23:00,
2014-01-19 19:28:00,32.3,-99.9,29.62,West,268,13.0,-999.0,-999,-99.99,,,-99.99,WeatherSnoop3.0,2014-01-20 00:28:00,
2014-01-19 19:33:00,32.4,-99.9,29.62,SW,236,9.8,-999.0,-999,-99.99,,,-99.99,WeatherSnoop3.0,2014-01-20 00:33:00,
2014-01-19 19:38:00,32.4,-99.9,29.62,WSW,237,11.4,-999.0,-999,-99.99,,,-99.99,WeatherSnoop3.0,2014-01-20 00:38:00,
2014-01-19 19:43:00,32.5,-99.9,29.62,SW,216,5.5,-999.0,-999,-99.99,,,-99.99,WeatherSnoop3.0,2014-01-20 00:43:00,
2014-01-19 19:48:00,32.6,-99.9,29.62,SW,230,6.5,-999.0,-999,-99.99,,,-99.99,WeatherSnoop3.0,2014-01-20 00:48:00,
2014-01-19 19:53:00,32.6,-99.9,29.61,SW,230,6.5,-999.0,-999,-99.99,,,-99.99,WeatherSnoop3.0,2014-01-20 00:53:00,
2014-01-19 19:58:00,32.5,-99.9,29.61,WSW,258,9.4,-999.0,-999,-99.99,,,-99.99,WeatherSnoop3.0,2014-01-20 00:58:00,
2014-01-19 20:03:00,32.5,-99.9,29.61,WSW,250,9.7,-999.0,-999,-99.99,,,-99.99,WeatherSnoop3.0,2014-01-20 01:03:00,
2014-01-19 20:08:00,32.5,-99.9,29.62,SW,216,8.6,-999.0,-999,-99.99,,,-99.99,WeatherSnoop3.0,2014-01-20 01:08:00,
2014-01-19 20:13:00,32.4,-99.9,29.62,WSW,256,9.7,-999.0,-999,-99.99,,,-99.99,WeatherSnoop3.0,2014-01-20 01:13:00,
2014-01-19 20:18:00,32.4,-99.9,29.62,SW,236,6.0,-999.0,-999,-99.99,,,-99.99,WeatherSnoop3.0,2014-01-20 01:18:00,
2014-01-19 20:23:00,32.3,-99.9,29.62,WNW,294,7.5,-999.0,-999,-99.99,,,-99.99,WeatherSnoop3.0,2014-01-20 01:23:00,
2014-01-19 20:28:00,32.2,-99.9,29.62,WSW,244,14.4,-999.0,-999,-99.99,,,-99.99,WeatherSnoop3.0,2014-01-20 01:28:00,
2014-01-19 20:33:00,32.3,-99.9,29.62,SSW,208,7.0,-999.0,-999,-99.99,,,-99.99,WeatherSnoop3.0,2014-01-20 01:33:00,
2014-01-19 20:38:00,32.2,-99.9,29.63,West,270,7.0,-999.0,-999,-99.99,,,-99.99,WeatherSnoop3.0,2014-01-20 01:38:00,
2014-01-19 20:43:00,32.3,-99.9,29.63,SSW,193,5.6,-999.0,-999,-99.99,,,-99.99,WeatherSnoop3.0,2014-01-20 01:43:00,
2014-01-19 20:48:00,32.3,-99.9,29.63,SW,233,7.3,-999.0,-999,-99.99,,,-99.99,WeatherSnoop3.0,2014-01-20 01:48:00,
2014-01-19 20:53:00,32.5,-99.9,29.63,SW,227,10.4,-999.0,-999,-99.99,,,-99.99,WeatherSnoop3.0,2014-01-20 01:53:00,
2014-01-19 20:58:00,32.5,-99.9,29.64,West,268,7.4,-999.0,-999,-99.99,,,-99.99,WeatherSnoop3.0,2014-01-20 01:58:00,
2014-01-19 21:03:00,32.5,-99.9,29.63,WSW,241,7.5,-999.0,-999,-99.99,,,-99.99,WeatherSnoop3.0,2014-01-20 02:03:00,
2014-01-19 21:08:00,32.3,-99.9,29.63,WSW,243,11.9,-999.0,-999,-99.99,,,-99.99,WeatherSnoop3.0,2014-01-20 02:08:00,
2014-01-19 21:13:00,32.3,-99.9,29.64,West,268,10.4,-999.0,-999,-99.99,,,-99.99,WeatherSnoop3.0,2014-01-20 02:13:00,
2014-01-19 21:18:00,32.1,-99.9,29.64,SW,236,4.4,-999.0,-999,-99.99,,,-99.99,WeatherSnoop3.0,2014-01-20 02:18:00,
2014-01-19 21:23:00,32.2,-99.9,29.64,WSW,250,13.1,-999.0,-999,-99.99,,,-99.99,WeatherSnoop3.0,2014-01-20 02:23:00,
2014-01-19 21:28:00,32.1,-99.9,29.64,WSW,251,13.2,-999.0,-999,-99.99,,,-99.99,WeatherSnoop3.0,2014-01-20 02:28:00,
2014-01-19 21:33:00,32.1,-99.9,29.64,West,265,10.3,-999.0,-999,-99.99,,,-99.99,WeatherSnoop3.0,2014-01-20 02:33:00,
2014-01-19 21:38:00,32.1,-99.9,29.64,SSW,200,7.2,-999.0,-999,-99.99,,,-99.99,WeatherSnoop3.0,2014-01-20 02:38:00,
2014-01-19 21:43:00,32.2,-99.9,29.64,SSW,203,7.9,-999.0,-999,-99.99,,,-99.99,WeatherSnoop3.0,2014-01-20 02:43:00,
2014-01-19 21:48:00,32.0,-99.9,29.64,SSW,200,3.6,-999.0,-999,-99.99,,,-99.99,WeatherSnoop3.0,2014-01-20 02:48:00,
2014-01-19 21:53:00,32.2,-99.9,29.63,SW,220,5.5,-999.0,-999,-99.99,,,-99.99,WeatherSnoop3.0,2014-01-20 02:53:00,
2014-01-19 21:58:00,32.1,-99.9,29.64,WSW,241,10.6,-999.0,-999,-99.99,,,-99.99,WeatherSnoop3.0,2014-01-20 02:58:00,
2014-01-19 22:03:00,32.4,-99.9,29.63,SW,234,20.6,-999.0,-999,-99.99,,,-99.99,WeatherSnoop3.0,2014-01-20 03:03:00,
2014-01-19 22:08:00,32.3,-99.9,29.63,West,280,8.8,-999.0,-999,-99.99,,,-99.99,WeatherSnoop3.0,2014-01-20 03:08:00,
2014-01-19 22:13:00,32.3,-99.9,29.64,SW,220,4.8,-999.0,-999,-99.99,,,-99.99,WeatherSnoop3.0,2014-01-20 03:13:00,
2014-01-19 22:18:00,32.3,-99.9,29.64,WSW,246,15.9,-999.0,-999,-99.99,,,-99.99,WeatherSnoop3.0,2014-01-20 03:18:00,
2014-01-19 22:23:00,32.3,-99.9,29.64,WSW,241,7.5,-999.0,-999,-99.99,,,-99.99,WeatherSnoop3.0,2014-01-20 03:23:00,
2014-01-19 22:28:00,32.1,-99.9,29.64,South,169,8.5,-999.0,-999,-99.99,,,-99.99,WeatherSnoop3.0,2014-01-20 03:28:00,
2014-01-19 22:33:00,32.2,-99.9,29.63,SW,236,4.2,-999.0,-999,-99.99,,,-99.99,WeatherSnoop3.0,2014-01-20 03:33:00,
2014-01-19 22:38:00,32.2,-99.9,29.63,SSW,195,7.6,-999.0,-999,-99.99,,,-99.99,WeatherSnoop3.0,2014-01-20 03:38:00,
2014-01-19 22:43:00,32.1,-99.9,29.63,WSW,257,5.5,-999.0,-999,-99.99,,,-99.99,WeatherSnoop3.0,2014-01-20 03:43:00,
2014-01-19 22:48:00,32.2,-99.9,29.63,SW,223,6.2,-999.0,-999,-99.99,,,-99.99,WeatherSnoop3.0,2014-01-20 03:48:00,
2014-01-19 22:53:00,32.2,-99.9,29.63,WSW,247,11.2,-999.0,-999,-99.99,,,-99.99,WeatherSnoop3.0,2014-01-20 03:53:00,
2014-01-19 22:58:00,32.1,-99.9,29.63,West,271,8.7,-999.0,-999,-99.99,,,-99.99,WeatherSnoop3.0,2014-01-20 03:58:00,
2014-01-19 23:03:00,32.1,-99.9,29.63,West,265,10.9,-999.0,-999,-99.99,,,-99.99,WeatherSnoop3.0,2014-01-20 04:03:00,
2014-01-19 23:08:00,32.1,-99.9,29.62,WSW,257,7.9,-999.0,-999,-99.99,,,-99.99,WeatherSnoop3.0,2014-01-20 04:08:00,
2014-01-19 23:13:00,32.2,-99.9,29.62,WSW,244,9.1,-999.0,-999,-99.99,,,-99.99,WeatherSnoop3.0,2014-01-20 04:13:00,
2014-01-19 23:18:00,32.1,-99.9,29.62,SW,236,13.2,-999.0,-999,-99.99,,,-99.99,WeatherSnoop3.0,2014-01-20 04:18:00,
2014-01-19 23:23:00,32.1,-99.9,29.62,WSW,248,6.0,-999.0,-999,-99.99,,,-99.99,WeatherSnoop3.0,2014-01-20 04:23:00,
2014-01-19 23:28:00,32.0,-99.9,29.62,WSW,251,7.9,-999.0,-999,-99.99,,,-99.99,WeatherSnoop3.0,2014-01-20 04:28:00,
2014-01-19 23:33:00,32.1,-99.9,29.62,West,260,2.9,-999.0,-999,-99.99,,,-99.99,WeatherSnoop3.0,2014-01-20 04:33:00,
2014-01-19 23:38:00,32.0,-99.9,29.62,WSW,254,3.2,-999.0,-999,-99.99,,,-99.99,WeatherSnoop3.0,2014-01-20 04:38:00,
2014-01-19 23:43:00,32.0,-99.9,29.62,SSW,200,5.8,-999.0,-999,-99.99,,,-99.99,WeatherSnoop3.0,2014-01-20 04:43:00,
2014-01-19 23:48:00,32.2,-99.9,29.62,SW,232,4.3,-999.0,-999,-99.99,,,-99.99,WeatherSnoop3.0,2014-01-20 04:48:00,
2014-01-19 23:53:00,32.0,-99.9,29.61,SW,226,4.5,-999.0,-999,-99.99,,,-99.99,WeatherSnoop3.0,2014-01-20 04:53:00,
2014-01-19 23:58:00,32.2,-99.9,29.61,WSW,240,3.1,-999.0,-999,-99.99,,,-99.99,WeatherSnoop3.0,2014-01-20 04:58:00,